Meteo pe oră la Dzialyn

Astăzi, 3 Martie, Miercuri

Timp Temperatura Precipitaţii Vânt Presiune Umiditate
00:00 +2°C° 0 mm 1 m/s 763 mmHg 91%
01:00 +1°C° 0 mm 1 m/s 763 mmHg 90%
02:00 +1°C° 0 mm 1 m/s 763 mmHg 88%
03:00 +1°C° 0 mm 1 m/s 762 mmHg 86%
04:00 0°C° 0 mm 0 m/s 762 mmHg 85%
05:00 +1°C° 0 mm 1 m/s 762 mmHg 84%
06:00 +2°C° 0 mm 1 m/s 762 mmHg 83%
07:00 +2°C° 0 mm 1 m/s 762 mmHg 81%
08:00 +3°C° 0 mm 1 m/s 762 mmHg 75%
09:00 +4°C° 0 mm 2 m/s 761 mmHg 68%
10:00 +5°C° 0 mm 2 m/s 761 mmHg 62%
11:00 +5°C° 0 mm 3 m/s 760 mmHg 61%
12:00 +7°C° 0 mm 3 m/s 760 mmHg 61%
13:00 +7°C° 0 mm 4 m/s 759 mmHg 60%
14:00 +7°C° 0 mm 4 m/s 758 mmHg 63%
15:00 +8°C° 0 mm 3 m/s 757 mmHg 65%
16:00 +8°C° 0 mm 3 m/s 757 mmHg 68%
17:00 +5°C° 0 mm 3 m/s 756 mmHg 73%
18:00 +4°C° 0 mm 3 m/s 755 mmHg 78%
19:00 +3°C° 0 mm 3 m/s 755 mmHg 83%
20:00 +3°C° 0 mm 3 m/s 754 mmHg 85%
21:00 +2°C° 0 mm 3 m/s 754 mmHg 86%
22:00 +2°C° 0 mm 3 m/s 753 mmHg 88%
23:00 +2°C° 0 mm 3 m/s 752 mmHg 88%

Mâine, 4 Martie, Joi

Timp Temperatura Precipitaţii Vânt Presiune Umiditate
00:00 +2°C° 0 mm 3 m/s 752 mmHg 89%
01:00 +1°C° 0 mm 3 m/s 751 mmHg 90%
02:00 0°C° 0 mm 4 m/s 750 mmHg 90%
03:00 0°C° 0 mm 4 m/s 749 mmHg 91%
04:00 0°C° 0 mm 4 m/s 748 mmHg 92%
05:00 +1°C° 0 mm 4 m/s 748 mmHg 93%
06:00 +1°C° 0 mm 4 m/s 748 mmHg 94%
07:00 +1°C° 0 mm 4 m/s 748 mmHg 94%
08:00 +2°C° 0 mm 5 m/s 748 mmHg 90%
09:00 +2°C° 0 mm 6 m/s 747 mmHg 85%
10:00 +3°C° 0 mm 6 m/s 747 mmHg 80%
11:00 +3°C° 0 mm 6 m/s 747 mmHg 79%
12:00 +2°C° 0 mm 6 m/s 747 mmHg 78%
13:00 +2°C° 0 mm 6 m/s 747 mmHg 76%
14:00 +2°C° 0 mm 6 m/s 747 mmHg 78%
15:00 +2°C° 0 mm 5 m/s 747 mmHg 81%
16:00 +1°C° 0 mm 5 m/s 747 mmHg 83%
17:00 0°C° 0.2 mm 5 m/s 747 mmHg 84%
18:00 -1°C° 0.2 mm 4 m/s 748 mmHg 85%
19:00 -1°C° 0.2 mm 4 m/s 748 mmHg 86%
20:00 -2°C° 0 mm 4 m/s 749 mmHg 83%
21:00 -2°C° 0 mm 4 m/s 749 mmHg 80%
22:00 -2°C° 0 mm 4 m/s 749 mmHg 77%
23:00 -3°C° 0 mm 4 m/s 749 mmHg 78%

Poimâine, 5 Martie, Vineri

Timp Temperatura Precipitaţii Vânt Presiune Umiditate
00:00 -3°C° 0 mm 4 m/s 750 mmHg 80%
01:00 -4°C° 0 mm 4 m/s 750 mmHg 81%
02:00 -4°C° 0 mm 3 m/s 750 mmHg 81%
03:00 -4°C° 0 mm 3 m/s 750 mmHg 81%
04:00 -4°C° 0 mm 3 m/s 750 mmHg 81%
05:00 -4°C° 0 mm 3 m/s 751 mmHg 80%
06:00 -4°C° 0 mm 3 m/s 751 mmHg 78%
07:00 -4°C° 0 mm 3 m/s 751 mmHg 77%
08:00 -2°C° 0 mm 4 m/s 752 mmHg 67%
09:00 -1°C° 0 mm 4 m/s 752 mmHg 56%
10:00 0°C° 0 mm 5 m/s 752 mmHg 45%
11:00 0°C° 0 mm 5 m/s 752 mmHg 43%
12:00 +1°C° 0 mm 5 m/s 752 mmHg 41%
13:00 +1°C° 0 mm 6 m/s 753 mmHg 40%
14:00 +1°C° 0 mm 5 m/s 753 mmHg 40%
15:00 0°C° 0 mm 5 m/s 753 mmHg 41%
16:00 0°C° 0 mm 5 m/s 753 mmHg 42%
17:00 -1°C° 0 mm 4 m/s 754 mmHg 46%
18:00 -1°C° 0 mm 3 m/s 755 mmHg 50%
19:00 -3°C° 0 mm 2 m/s 755 mmHg 55%
20:00 -3°C° 0 mm 2 m/s 756 mmHg 55%
21:00 -3°C° 0 mm 2 m/s 756 mmHg 54%
22:00 -3°C° 0 mm 2 m/s 757 mmHg 54%
23:00 -3°C° 0 mm 2 m/s 757 mmHg 56%

6 Martie, Sâmbătă

Timp Temperatura Precipitaţii Vânt Presiune Umiditate
00:00 -3°C° 0 mm 2 m/s 757 mmHg 57%
01:00 -3°C° 0 mm 2 m/s 758 mmHg 58%
02:00 -3°C° 0 mm 2 m/s 758 mmHg 62%
03:00 -3°C° 0 mm 2 m/s 758 mmHg 66%
04:00 -4°C° 0 mm 3 m/s 758 mmHg 70%
05:00 -4°C° 0 mm 3 m/s 759 mmHg 75%
06:00 -4°C° 0 mm 2 m/s 759 mmHg 80%
07:00 -4°C° 0 mm 2 m/s 759 mmHg 85%
08:00 -2°C° 0 mm 3 m/s 760 mmHg 73%
09:00 -1°C° 0 mm 3 m/s 760 mmHg 61%
10:00 -1°C° 0 mm 4 m/s 760 mmHg 50%
11:00 -1°C° 0 mm 4 m/s 760 mmHg 48%
12:00 0°C° 0 mm 4 m/s 760 mmHg 45%
13:00 0°C° 0 mm 5 m/s 760 mmHg 43%
14:00 0°C° 0 mm 5 m/s 760 mmHg 45%
15:00 0°C° 0 mm 4 m/s 759 mmHg 47%
16:00 0°C° 0 mm 4 m/s 759 mmHg 49%
17:00 -1°C° 0 mm 4 m/s 759 mmHg 53%
18:00 -2°C° 0 mm 4 m/s 758 mmHg 57%
19:00 -3°C° 0 mm 4 m/s 758 mmHg 61%
20:00 -4°C° 0 mm 5 m/s 758 mmHg 60%
21:00 -4°C° 0 mm 5 m/s 757 mmHg 59%
22:00 -4°C° 0 mm 6 m/s 757 mmHg 57%
23:00 -4°C° 0 mm 7 m/s 756 mmHg 57%

7 Martie, Duminică

Timp Temperatura Precipitaţii Vânt Presiune Umiditate
00:00 -3°C° 0 mm 7 m/s 756 mmHg 56%
01:00 -3°C° 0 mm 7 m/s 755 mmHg 55%
02:00 -4°C° 0 mm 8 m/s 754 mmHg 58%
03:00 -4°C° 0 mm 8 m/s 754 mmHg 61%
04:00 -5°C° 0 mm 8 m/s 753 mmHg 64%
05:00 -4°C° 0 mm 8 m/s 753 mmHg 71%
06:00 -4°C° 0 mm 8 m/s 752 mmHg 78%
07:00 -4°C° 0 mm 8 m/s 752 mmHg 85%
08:00 -2°C° 0 mm 8 m/s 752 mmHg 81%
09:00 -3°C° 0 mm 9 m/s 752 mmHg 76%
10:00 -1°C° 0 mm 9 m/s 752 mmHg 72%
11:00 -1°C° 0 mm 9 m/s 752 mmHg 71%
12:00 0°C° 0 mm 9 m/s 752 mmHg 71%
13:00 0°C° 0 mm 8 m/s 752 mmHg 70%
14:00 0°C° 0 mm 8 m/s 751 mmHg 73%
15:00 -1°C° 0 mm 8 m/s 751 mmHg 76%
16:00 -1°C° 0 mm 8 m/s 751 mmHg 78%
17:00 -1°C° 0 mm 7 m/s 751 mmHg 81%
18:00 -2°C° 0 mm 6 m/s 751 mmHg 84%
19:00 -2°C° 0 mm 6 m/s 751 mmHg 86%
20:00 -2°C° 0.2 mm 5 m/s 751 mmHg 89%
21:00 -2°C° 0.2 mm 5 m/s 752 mmHg 91%
22:00 -3°C° 0.2 mm 4 m/s 752 mmHg 93%
23:00 -2°C° 0.2 mm 3 m/s 752 mmHg 94%

8 Martie, Luni

Timp Temperatura Precipitaţii Vânt Presiune Umiditate
00:00 -2°C° 0.2 mm 3 m/s 752 mmHg 94%
01:00 -3°C° 0.2 mm 2 m/s 751 mmHg 95%
02:00 -3°C° 0.2 mm 2 m/s 751 mmHg 94%
03:00 -1°C° 0.2 mm 1 m/s 751 mmHg 93%
04:00 -1°C° 0.2 mm 1 m/s 751 mmHg 92%
05:00 -1°C° 0.1 mm 1 m/s 751 mmHg 90%
06:00 -1°C° 0.1 mm 1 m/s 752 mmHg 87%
07:00 -1°C° 0.1 mm 1 m/s 752 mmHg 85%
08:00 -3°C° 0 mm 2 m/s 752 mmHg 77%
09:00 -2°C° 0 mm 2 m/s 752 mmHg 70%
10:00 -1°C° 0 mm 3 m/s 753 mmHg 63%
11:00 -1°C° 0 mm 3 m/s 753 mmHg 60%
12:00 -1°C° 0 mm 4 m/s 753 mmHg 58%
13:00 -1°C° 0 mm 4 m/s 753 mmHg 55%
14:00 -1°C° 0 mm 4 m/s 753 mmHg 56%
15:00 -2°C° 0 mm 5 m/s 753 mmHg 57%
16:00 -2°C° 0 mm 5 m/s 754 mmHg 58%
17:00 -3°C° 0 mm 4 m/s 754 mmHg 63%
18:00 -4°C° 0 mm 4 m/s 755 mmHg 68%
19:00 -6°C° 0 mm 3 m/s 755 mmHg 72%
20:00 -6°C° 0 mm 3 m/s 756 mmHg 72%
21:00 -6°C° 0 mm 3 m/s 756 mmHg 72%
22:00 -6°C° 0 mm 3 m/s 757 mmHg 72%
23:00 -6°C° 0 mm 2 m/s 757 mmHg 71%
Arată mai mult

Formular de consimțământ

Meteoprog și furnizorii noștri de servicii pot stoca și accesa date personale, precum cookies, identificatori de dispozitiv sau alte tehnologii similare pe dispozitivul dumneavoastră și procesa astfel de date pentru a personaliza conținutul și reclamele, dar și pentru a oferi caracteristici de social media și pentru a analiza traficul.

  • Stocarea și/sau accesarea informațiilor pe dispozitivul dumneavoastră

    Cookies, identificatori de dispozitiv sau alte informații pot fi stocate sau accesate pe dispozitiv în scopurile indicate mai sus.

  • Reclame și conținut personalizat, evaluarea reclamelor și a conținutului, informații despre audiențe și dezvoltarea produselor

    Reclamele și conținutul pot fi personalizate pe baza unui profil. Pot fi adăugate date suplimentare pentru a personaliza mai bine reclamele și conținutul. Performanța reclamelor și conținutului poate fi măsurată. Pot fi obținute informații despre utilizatorii care au văzut reclamele și conținutul. Aceste date pot fi utilizate pentru a dezvolta sau îmbunătăți experiența utilizatorilor, sistemele și software-ul.

Dând clic pe ‘Sunt de acord’, permiteți utilizarea cookie-urilor menționate, a identificatorilor de dispozitiv, balizelor web sau altor tehnologii similare. Setările pot fi modificate din browser-ul dispozitivului dumneavoastră.

În anumite scopuri, interesele legitime pot prima asupra consimțământului. Puteți citi mai multe informații în acest sens în Politica privind Confidențialitatea Datelor și Cookie.